FW8254 Weather Reports


time (UTC)temp
F
wind
direction
speed
knots
gust
knots
rain 1hr
in
rain 24hr
in
rain mn
in
humidity
%
barometer
mb
20260901104620 75 333 0.0 0.0 0.00 0.00 0.00 94 1012.9
20260901104115 75 334 0.0 0.0 0.00 0.00 0.00 94 1012.7
20260901103609 75 333 0.0 0.0 0.00 0.00 0.00 94 1012.8
20260901103105 75 332 0.0 0.0 0.00 0.00 0.00 93 1012.8
20260901102605 75 332 0.0 0.0 0.00 0.00 0.00 93 1013.1
20260901102105 75 332 0.0 0.0 0.00 0.00 0.00 93 1012.7
20260901101601 75 332 0.0 0.0 0.00 0.00 0.00 93 1012.9
20260901101100 75 332 0.0 0.0 0.00 0.00 0.00 93 1012.7
20260901100559 75 332 0.0 0.0 0.00 0.00 0.00 93 1012.6
20260901100054 75 333 0.0 0.0 0.00 0.00 0.00 93 1012.8
20260901095552 75 334 0.0 0.0 0.00 0.00 0.00 93 1012.7
20260901095050 75 333 0.0 0.0 0.00 0.00 0.00 92 1012.7
20260901094546 75 333 0.0 0.0 0.00 0.00 0.00 92 1012.6
20260901094045 75 333 0.0 0.0 0.00 0.00 0.00 92 1012.8
20260901093540 75 335 0.0 0.0 0.00 0.00 0.00 92 1012.7
20260901093034 75 334 0.0 0.0 0.00 0.00 0.00 92 1012.7
20260901092530 75 332 0.0 0.0 0.00 0.00 0.00 92 1012.6
20260901092026 75 332 0.0 0.0 0.00 0.00 0.00 91 1012.8
20260901091522 75 332 0.0 0.0 0.00 0.00 0.00 91 1012.6
20260901091022 75 332 0.0 0.0 0.00 0.00 0.00 91 1012.3
20260901090521 75 332 0.0 0.0 0.00 0.00 0.00 91 1012.5
20260901090017 75 332 0.0 0.0 0.00 0.00 0.00 91 1012.5
20260901085512 75 332 0.0 0.0 0.00 0.00 0.00 91 1012.6
20260901085009 75 333 0.0 0.0 0.00 0.00 0.00 91 1012.6
20260901084505 75 333 0.0 0.0 0.00 0.00 0.00 91 1012.6
20260901084001 75 333 0.0 0.0 0.00 0.00 0.00 91 1012.7
20260901083501 75 335 0.0 0.0 0.00 0.00 0.00 91 1012.5
20260901082958 75 334 0.0 0.0 0.00 0.00 0.00 90 1012.3
20260901082454 75 337 0.0 0.0 0.00 0.00 0.00 90 1012.3
20260901081949 75 337 0.0 0.0 0.00 0.00 0.00 90 1012.3
20260901081444 75 335 0.0 0.0 0.00 0.00 0.00 90 1012.5
20260901080938 75 337 0.0 0.0 0.00 0.00 0.00 90 1012.5
20260901080433 75 336 0.0 0.9 0.00 0.00 0.00 90 1012.6
20260901075932 76 337 0.0 0.0 0.00 0.00 0.00 90 1012.5
20260901075428 76 336 0.0 0.0 0.00 0.00 0.00 90 1012.5
20260901074928 76 336 0.0 0.0 0.00 0.00 0.00 89 1012.4
20260901074427 76 337 0.0 0.0 0.00 0.00 0.00 89 1012.6
20260901073923 76 336 0.0 0.0 0.00 0.00 0.00 89 1012.7
20260901073419 76 335 0.0 0.0 0.00 0.00 0.00 89 1012.8
20260901072914 76 335 0.0 0.0 0.00 0.00 0.00 89 1012.8
20260901072409 76 335 0.0 0.0 0.00 0.00 0.00 89 1012.6
20260901071904 76 334 0.0 0.0 0.00 0.00 0.00 88 1012.9
20260901071403 76 335 0.0 0.9 0.00 0.00 0.00 88 1012.8
20260901070901 76 335 0.0 0.9 0.00 0.00 0.00 88 1013.0
20260901070357 76 334 0.0 0.0 0.00 0.00 0.00 88 1013.0
20260901065856 77 334 0.0 0.0 0.00 0.00 0.00 88 1013.0
20260901065351 77 334 0.0 0.0 0.00 0.00 0.00 87 1012.9
20260901064847 77 334 0.0 0.0 0.00 0.00 0.00 87 1013.0
20260901064343 77 334 0.0 0.0 0.00 0.00 0.00 86 1012.9
20260901063840 77 334 0.0 0.0 0.00 0.00 0.00 86 1013.1
20260901063336 77 334 0.0 0.0 0.00 0.00 0.00 86 1013.2
20260901062832 77 333 0.0 0.0 0.00 0.00 0.00 85 1013.0
20260901062328 77 333 0.0 0.0 0.00 0.00 0.00 85 1013.1
20260901061824 76 338 0.9 0.9 0.00 0.00 0.00 85 1013.0
20260901061319 76 332 0.0 0.0 0.00 0.00 0.00 85 1012.9
20260901060814 76 333 0.0 0.0 0.00 0.00 0.00 85 1013.2
20260901060310 76 335 0.0 0.0 0.00 0.00 0.00 86 1013.0
20260901055804 76 334 0.0 0.0 0.00 0.00 0.00 86 1013.0
20260901055301 76 334 0.0 0.0 0.00 0.00 0.00 87 1012.9
20260901054757 76 334 0.0 0.0 0.00 0.00 0.00 87 1013.0
20260901054254 76 334 0.0 0.0 0.00 0.00 0.00 87 1013.1
20260901053749 76 335 0.0 0.0 0.00 0.00 0.00 88 1013.1
20260901053249 76 331 0.0 0.0 0.00 0.00 0.00 89 1012.9
20260901052745 76 337 0.0 0.9 0.00 0.00 0.00 89 1013.2
20260901052241 76 333 0.0 0.0 0.00 0.00 0.00 89 1013.2
20260901051739 76 332 0.0 0.0 0.00 0.00 0.00 90 1013.3
20260901051234 76 331 0.0 0.0 0.00 0.00 0.00 90 1013.2
20260901050730 77 329 0.0 0.0 0.00 0.00 0.00 90 1013.4
20260901050225 77 329 0.0 0.0 0.00 0.00 0.00 90 1013.2
20260901045720 77 331 0.0 0.0 0.00 0.00 0.00 90 1013.2
20260901045215 77 332 0.0 0.0 0.00 0.00 0.00 90 1013.2
20260901044710 77 331 0.0 0.0 0.00 0.00 0.00 90 1013.1
20260901044206 77 332 0.0 0.0 0.00 0.00 0.00 90 1013.0
20260901043702 77 332 0.0 0.0 0.00 0.00 0.00 90 1013.1
20260901043157 77 334 0.0 0.0 0.00 0.00 0.00 90 1013.3
20260901042656 78 334 0.9 0.9 0.00 0.00 0.00 90 1013.3
20260901042151 78 334 0.0 0.0 0.00 0.00 0.00 90 1013.1
20260901041648 78 334 0.0 0.0 0.00 0.00 0.00 90 1013.0
20260901041147 78 332 0.0 0.0 0.00 0.00 0.00 89 1013.0
20260901040642 78 333 0.0 0.0 0.00 0.00 0.00 90 1013.0
20260901040141 78 332 0.0 0.0 0.00 0.00 0.00 89 1013.0
20260901035639 78 332 0.0 0.0 0.00 0.00 0.00 89 1013.0
20260901035138 78 332 0.0 0.0 0.00 0.00 0.00 89 1012.8
20260901034632 78 332 0.0 0.0 0.00 0.00 0.00 89 1012.8
20260901034127 78 333 0.0 0.0 0.00 0.00 0.00 89 1013.0
20260901033626 78 332 0.0 0.0 0.00 0.00 0.00 88 1012.7
20260901033121 78 326 0.0 0.0 0.00 0.00 0.00 88 1012.9
20260901032619 78 323 0.0 0.9 0.00 0.00 0.00 88 1012.7
20260901032114 78 332 0.0 0.0 0.00 0.00 0.00 88 1012.7
20260901031609 78 332 0.0 0.0 0.00 0.00 0.00 87 1012.6
20260901031106 78 333 0.0 0.0 0.00 0.00 0.00 87 1012.8
20260901030605 78 333 0.0 0.0 0.00 0.00 0.00 87 1012.5
20260901030100 78 332 0.0 0.0 0.00 0.00 0.00 87 1012.6
20260901025600 78 332 0.0 0.0 0.00 0.00 0.00 87 1012.7
20260901025054 78 332 0.0 0.0 0.00 0.00 0.00 86 1012.5
20260901024549 78 332 0.0 0.0 0.00 0.00 0.00 86 1012.8
20260901024048 79 332 0.0 0.0 0.00 0.00 0.00 86 1012.8
20260901023547 79 332 0.0 0.0 0.00 0.00 0.00 86 1012.8
20260901023043 79 332 0.0 0.0 0.00 0.00 0.00 86 1012.7
20260901022537 79 333 0.0 0.0 0.00 0.00 0.00 86 1012.7
20260901022032 79 335 0.0 0.0 0.00 0.00 0.00 85 1012.8
20260901021528 80 335 0.0 0.9 0.00 0.00 0.00 85 1012.7
20260901021024 80 335 0.0 0.0 0.00 0.00 0.00 85 1012.6
20260901020519 80 337 0.9 0.9 0.00 0.00 0.00 84 1012.7
20260901020014 80 334 0.0 0.0 0.00 0.00 0.00 84 1012.6
20260901015509 80 334 0.0 0.9 0.00 0.00 0.00 83 1012.6
20260901015009 80 334 0.0 0.0 0.00 0.00 0.00 83 1012.6
20260901014505 80 334 0.0 0.9 0.00 0.00 0.00 83 1012.6
20260901014000 80 334 0.0 0.0 0.00 0.00 0.00 83 1012.5
20260901013456 80 335 0.0 0.0 0.00 0.00 0.00 83 1012.4
20260901012951 80 333 0.0 0.9 0.00 0.00 0.00 83 1012.4
20260901012451 81 333 0.0 0.0 0.00 0.00 0.00 83 1012.5
20260901011946 81 332 0.0 0.0 0.00 0.00 0.00 83 1012.4
20260901011442 81 332 0.0 0.0 0.00 0.00 0.00 83 1012.0
20260901010940 82 332 0.0 0.0 0.00 0.00 0.00 83 1012.0
20260901010435 82 330 0.0 0.0 0.00 0.00 0.00 83 1012.1
20260901005935 82 331 0.0 0.0 0.00 0.00 0.00 82 1012.1
20260901005430 82 329 0.0 0.0 0.00 0.00 0.00 81 1011.9
20260901004925 83 329 0.0 0.0 0.00 0.00 0.00 81 1011.9
20260901004424 83 329 0.0 0.0 0.00 0.00 0.00 80 1011.7
20260901003919 83 329 0.0 0.0 0.00 0.00 0.00 79 1011.8
20260901003414 83 330 0.0 0.0 0.00 0.00 0.00 79 1011.6
20260901002913 83 329 0.0 0.0 0.00 0.00 0.00 78 1011.6
20260901002412 83 327 0.0 0.0 0.00 0.00 0.00 77 1011.8
20260901001907 84 327 0.0 0.0 0.00 0.00 0.00 76 1011.7
20260901001403 84 327 0.0 0.0 0.00 0.00 0.00 76 1011.6
20260901000858 84 326 0.0 0.0 0.00 0.00 0.00 75 1011.6
20260901000353 85 324 0.0 0.0 0.00 0.00 0.00 75 1011.6
20260831235851 85 328 0.0 0.0 0.00 0.00 0.00 75 1011.8
20260831235348 85 34 0.0 0.0 0.00 0.00 0.00 74 1011.6
20260831234842 85 35 0.0 0.0 0.00 0.00 0.00 73 1011.6
20260831234342 86 36 0.0 0.0 0.00 0.00 0.00 72 1011.6
20260831233838 86 35 0.0 0.0 0.00 0.00 0.00 70 1011.7
20260831233333 86 35 0.0 0.0 0.00 0.00 0.00 67 1011.6
20260831232828 87 35 0.0 0.0 0.00 0.00 0.00 65 1011.6
20260831232325 87 35 0.0 0.0 0.00 0.00 0.00 64 1011.8
20260831231820 88 36 0.0 0.0 0.00 0.00 0.00 63 1011.6
20260831231317 88 36 0.0 0.0 0.00 0.00 0.00 62 1011.8
20260831230811 89 36 0.0 0.0 0.00 0.00 0.00 61 1011.7
20260831230306 89 36 0.0 0.9 0.00 0.00 0.00 61 1011.8
20260831225806 89 36 0.0 0.9 0.00 0.00 0.00 59 1011.7
20260831225301 89 36 0.0 0.9 0.00 0.00 0.00 58 1011.6
20260831224756 89 36 0.0 0.0 0.00 0.00 0.00 59 1011.7
20260831224251 89 36 0.0 0.0 0.00 0.00 0.00 58 1011.6
20260831223746 89 36 0.0 0.0 0.00 0.00 0.00 58 1011.8
20260831223242 89 36 0.0 0.9 0.00 0.00 0.00 59 1011.8
20260831222738 90 36 0.0 0.9 0.00 0.00 0.00 59 1011.8
20260831222234 90 35 0.0 0.9 0.00 0.00 0.00 60 1011.9
20260831221729 91 11 0.0 0.9 0.00 0.00 0.00 58 1011.8
20260831221225 91 11 0.0 0.9 0.00 0.00 0.00 58 1011.7
20260831220719 91 8 0.9 1.7 0.00 0.00 0.00 57 1011.7
20260831220215 91 36 0.0 0.9 0.00 0.00 0.00 58 1012.3
20260831215709 91 4 0.9 0.9 0.00 0.00 0.00 58 1011.7
20260831215206 90 19 0.9 0.9 0.00 0.00 0.00 59 1011.8
20260831214702 91 341 1.7 2.6 0.00 0.00 0.00 59 1011.8
20260831214159 91 0 1.7 2.6 0.00 0.00 0.00 58 1011.7
20260831213654 90 21 0.0 1.7 0.00 0.00 0.00 58 1011.7
20260831213150 90 16 0.9 0.9 0.00 0.00 0.00 61 1011.7
20260831212646 90 332 2.6 2.6 0.00 0.00 0.00 58 1011.8
20260831212143 90 349 1.7 1.7 0.00 0.00 0.00 59 1011.9
20260831211641 90 4 1.7 2.6 0.00 0.00 0.00 60 1011.9
20260831211141 90 336 1.7 2.6 0.00 0.00 0.00 60 1012.2
20260831210636 90 6 1.7 1.7 0.00 0.00 0.00 58 1012.0
20260831210132 90 19 0.9 1.7 0.00 0.00 0.00 58 1012.0
20260831205631 90 15 0.9 1.7 0.00 0.00 0.00 59 1011.8
20260831205128 90 16 0.9 1.7 0.00 0.00 0.00 60 1012.0
20260831204627 89 353 1.7 1.7 0.00 0.00 0.00 60 1012.3
20260831204126 89 15 0.9 1.7 0.00 0.00 0.00 59 1012.3
20260831203621 90 12 0.9 1.7 0.00 0.00 0.00 59 1012.4
20260831203120 90 11 0.9 1.7 0.00 0.00 0.00 58 1012.4
20260831202619 90 352 1.7 1.7 0.00 0.00 0.00 59 1012.3
20260831202114 90 357 1.7 2.6 0.00 0.00 0.00 59 1012.5
20260831201613 90 16 0.9 0.9 0.00 0.00 0.00 59 1012.6
20260831201108 90 12 0.9 1.7 0.00 0.00 0.00 60 1012.6
20260831200604 90 339 2.6 2.6 0.00 0.00 0.00 60 1012.6
20260831200103 90 348 1.7 2.6 0.00 0.00 0.00 58 1012.6
20260831195559 92 5 0.9 1.7 0.00 0.00 0.00 57 1012.5
20260831195054 93 18 0.9 0.9 0.00 0.00 0.00 55 1012.5
20260831194549 92 35 0.9 1.7 0.00 0.00 0.00 55 1012.6
20260831194044 93 43 0.0 0.9 0.00 0.00 0.00 55 1012.8
20260831193539 93 43 0.9 1.7 0.00 0.00 0.00 55 1012.6
20260831193039 93 10 1.7 2.6 0.00 0.00 0.00 53 1012.6
20260831192534 92 35 0.0 0.9 0.00 0.00 0.00 56 1012.7
20260831192030 92 37 1.7 1.7 0.00 0.00 0.00 55 1012.9
20260831191525 92 35 0.9 0.9 0.00 0.00 0.00 56 1012.9
20260831191021 92 34 0.0 1.7 0.00 0.00 0.00 57 1012.9
20260831190517 92 34 0.0 0.9 0.00 0.00 0.00 57 1012.9
20260831190015 92 29 0.0 0.9 0.00 0.00 0.00 58 1013.3
20260831185511 91 33 0.0 0.9 0.00 0.00 0.00 58 1013.3
20260831185006 90 33 0.0 0.9 0.00 0.00 0.00 60 1013.3
20260831184455 88 24 0.0 0.9 0.00 0.00 0.00 61 1013.5
20260831183950 88 37 0.0 0.9 0.00 0.00 0.00 61 1013.6
20260831183449 89 57 0.9 1.7 0.00 0.00 0.00 59 1013.4
20260831182949 89 47 0.9 1.7 0.00 0.00 0.00 60 1013.7
20260831182444 89 45 1.7 2.6 0.00 0.00 0.00 58 1013.7
20260831181940 89 33 0.0 0.9 0.00 0.00 0.00 59 1013.9
20260831181435 89 49 0.9 1.7 0.00 0.00 0.00 60 1013.8
20260831180929 88 38 0.9 1.7 0.00 0.00 0.00 62 1014.0
20260831180424 87 27 0.0 0.9 0.00 0.00 0.00 63 1013.8
20260831175923 87 14 0.9 1.7 0.00 0.00 0.00 63 1013.8
20260831175420 87 13 0.9 1.7 0.00 0.00 0.00 63 1014.0
20260831174915 87 9 1.7 1.7 0.00 0.00 0.00 63 1014.0
20260831174410 87 17 0.9 1.7 0.00 0.00 0.00 63 1014.2
20260831173909 86 3 0.9 1.7 0.00 0.00 0.00 64 1014.1
20260831173403 86 344 1.7 2.6 0.00 0.00 0.00 64 1014.2
20260831172859 86 16 0.9 1.7 0.00 0.00 0.00 65 1014.2
20260831172355 86 7 0.9 1.7 0.00 0.00 0.00 66 1014.3
20260831171854 86 355 1.7 2.6 0.00 0.00 0.00 68 1014.4
20260831171351 85 331 2.6 2.6 0.00 0.00 0.00 67 1014.1
20260831170848 86 15 0.9 1.7 0.00 0.00 0.00 67 1014.3
20260831170343 85 15 0.9 1.7 0.00 0.00 0.00 69 1014.2
20260831165839 86 359 1.7 1.7 0.00 0.00 0.00 68 1014.4
20260831165335 86 19 0.9 0.9 0.00 0.00 0.00 71 1014.4
20260831164832 86 18 0.0 0.9 0.00 0.00 0.00 67 1014.5
20260831164328 86 22 0.0 0.9 0.00 0.00 0.00 67 1014.5
20260831163823 86 24 0.0 0.9 0.00 0.00 0.00 66 1014.6
20260831163319 86 21 0.9 0.9 0.00 0.00 0.00 66 1014.5
20260831162817 86 51 0.9 1.7 0.00 0.00 0.00 66 1014.6
20260831162312 86 35 0.9 0.9 0.00 0.00 0.00 67 1014.8
20260831161811 86 29 0.0 0.9 0.00 0.00 0.00 70 1014.7
20260831161307 84 35 0.0 0.9 0.00 0.00 0.00 71 1014.6
20260831160802 84 35 0.0 0.0 0.00 0.00 0.00 73 1014.6
20260831160257 84 34 0.0 0.0 0.00 0.00 0.00 76 1014.7
20260831155756 83 34 0.0 0.9 0.00 0.00 0.00 75 1014.8
20260831155252 83 31 0.0 0.0 0.00 0.00 0.00 75 1015.0
20260831154748 83 13 0.9 0.9 0.00 0.00 0.00 75 1015.0
20260831154244 83 32 0.0 0.0 0.00 0.00 0.00 77 1014.9
20260831153742 83 33 0.0 0.9 0.00 0.00 0.00 76 1015.0
20260831153238 83 31 0.0 0.0 0.00 0.00 0.00 76 1014.8
20260831152734 82 14 0.9 1.7 0.00 0.00 0.00 76 1015.0
20260831152230 83 15 0.9 1.7 0.00 0.00 0.00 77 1014.7
20260831151730 83 38 0.0 0.9 0.00 0.00 0.00 77 1014.9
20260831151229 83 29 0.0 0.9 0.00 0.00 0.00 76 1014.8
20260831150725 82 43 0.0 0.9 0.00 0.00 0.00 78 1014.8
20260831150220 82 25 0.9 1.7 0.00 0.00 0.00 78 1014.8
20260831145719 81 12 0.9 2.6 0.00 0.00 0.00 80 1015.0
20260831145216 81 18 0.9 1.7 0.00 0.00 0.00 81 1015.0
20260831144711 80 18 0.0 0.9 0.00 0.00 0.00 81 1015.1
20260831144207 80 12 0.9 1.7 0.00 0.00 0.00 84 1015.0
20260831143706 80 16 0.0 0.9 0.00 0.00 0.00 85 1014.9
20260831143202 80 23 0.0 1.7 0.00 0.00 0.00 85 1014.9
20260831142658 79 23 0.9 2.6 0.00 0.00 0.00 85 1015.0
20260831142153 79 18 0.9 2.6 0.00 0.00 0.00 87 1014.9
20260831141652 78 21 0.9 1.7 0.00 0.00 0.00 88 1015.0
20260831141147 78 16 0.9 0.9 0.00 0.00 0.00 88 1015.0
20260831140646 78 22 0.0 0.9 0.00 0.00 0.00 90 1014.8
20260831140141 77 10 0.9 0.9 0.00 0.00 0.00 91 1015.1
20260831135639 77 11 0.0 0.0 0.00 0.00 0.00 92 1015.0
20260831135135 77 24 0.0 0.0 0.00 0.00 0.00 93 1014.8
20260831134631 76 22 0.0 0.0 0.00 0.00 0.00 94 1014.8
20260831134126 76 23 0.0 0.0 0.00 0.00 0.00 95 1014.8
20260831133625 76 20 0.0 0.0 0.00 0.00 0.00 96 1014.7
20260831133120 76 17 0.0 0.9 0.00 0.00 0.00 96 1014.9
20260831132616 75 22 0.0 0.0 0.00 0.00 0.00 96 1014.8
20260831132115 75 24 0.0 0.9 0.00 0.00 0.00 96 1014.8
20260831131610 75 24 0.0 0.9 0.00 0.00 0.00 97 1014.9
20260831131107 75 26 0.0 0.0 0.00 0.00 0.00 97 1014.8
20260831130601 75 30 0.0 0.0 0.00 0.00 0.00 97 1014.8
20260831130057 75 31 0.0 0.0 0.00 0.00 0.00 97 1014.7
20260831125555 74 25 0.0 0.0 0.00 0.00 0.00 97 1014.8
20260831125051 74 30 0.0 0.0 0.00 0.00 0.00 97 1014.8
20260831124547 74 26 0.0 0.0 0.00 0.00 0.00 97 1014.8
20260831124043 74 343 0.0 0.0 0.00 0.00 0.00 97 1014.7
20260831123542 73 350 0.0 0.0 0.00 0.00 0.00 97 1014.7
20260831123036 73 350 0.0 0.0 0.00 0.00 0.00 97 1014.8
20260831122531 73 350 0.0 0.0 0.00 0.00 0.00 97 1014.7
20260831122026 73 350 0.0 0.0 0.00 0.00 0.00 97 1014.5
20260831121527 73 350 0.0 0.0 0.00 0.00 0.00 97 1014.8
20260831121023 72 350 0.0 0.0 0.00 0.00 0.00 97 1014.6
20260831120522 72 350 0.0 0.0 0.00 0.00 0.00 97 1014.5
20260831120018 72 350 0.0 0.0 0.00 0.00 0.00 97 1014.4
20260831115514 72 350 0.0 0.0 0.00 0.00 0.00 97 1014.4
20260831115009 72 351 0.0 0.0 0.00 0.00 0.00 97 1014.3
20260831114507 72 347 0.0 0.0 0.00 0.00 0.00 97 1014.4
20260831114003 72 351 0.0 0.0 0.00 0.00 0.00 97 1014.4
20260831113501 72 350 0.0 0.0 0.00 0.00 0.00 97 1014.3
20260831112957 72 350 0.0 0.0 0.00 0.00 0.00 97 1014.4
20260831112452 72 351 0.0 0.0 0.00 0.00 0.00 97 1014.1
20260831111947 72 348 0.0 0.0 0.00 0.00 0.00 96 1014.2
20260831111443 72 348 0.0 0.0 0.00 0.00 0.00 96 1014.3
20260831110938 72 351 0.0 0.0 0.00 0.00 0.00 96 1014.1
20260831110433 72 351 0.0 0.0 0.00 0.00 0.00 96 1014.3
20260831105932 73 351 0.0 0.0 0.00 0.00 0.00 96 1014.3
20260831105428 72 351 0.0 0.0 0.00 0.00 0.00 96 1014.1
20260831104923 72 351 0.0 0.0 0.00 0.00 0.00 96 1014.2